Year,Month,Day,Hour,Minute,Value (Times are PST for temperature in C)
2008,06,30,00,00,22.40
2008,06,30,00,01,22.40
2008,06,30,00,02,22.40
2008,06,30,00,03,22.40
2008,06,30,00,04,22.30
2008,06,30,00,05,22.30
2008,06,30,00,06,22.30
2008,06,30,00,07,22.30
2008,06,30,00,08,22.20
2008,06,30,00,09,22.20
2008,06,30,00,10,22.20
2008,06,30,00,11,22.20
2008,06,30,00,12,22.20
2008,06,30,01,02,21.20
2008,06,30,01,03,21.20
2008,06,30,01,04,21.10
2008,06,30,01,05,21.10
2008,06,30,01,06,21.10
2008,06,30,01,07,21.00
2008,06,30,01,08,21.00
2008,06,30,01,09,21.00
2008,06,30,01,10,21.00
2008,06,30,01,11,20.90
2008,06,30,01,12,20.90
2008,06,30,01,13,20.90
2008,06,30,01,14,20.80
2008,06,30,01,15,20.80
2008,06,30,01,16,20.70
2008,06,30,01,17,20.70
2008,06,30,01,18,20.70
2008,06,30,01,19,20.60
2008,06,30,01,20,20.60
2008,06,30,01,21,20.60
2008,06,30,01,22,20.50
2008,06,30,01,23,20.50
2008,06,30,01,24,20.50
2008,06,30,01,25,20.40
2008,06,30,01,26,20.40
2008,06,30,01,27,20.30
2008,06,30,01,28,20.30
2008,06,30,01,29,20.30
2008,06,30,01,30,20.20
2008,06,30,01,31,20.20
2008,06,30,01,32,20.20
2008,06,30,01,33,20.20
2008,06,30,01,34,20.20
2008,06,30,01,35,20.20
2008,06,30,01,36,20.20
2008,06,30,01,37,20.20
2008,06,30,01,38,20.20
2008,06,30,01,39,20.20
2008,06,30,01,40,20.20
2008,06,30,01,41,20.20
2008,06,30,01,42,20.20
2008,06,30,01,43,20.20
2008,06,30,01,44,20.20
2008,06,30,01,45,20.20
2008,06,30,01,46,20.20
2008,06,30,01,47,20.20
2008,06,30,01,48,20.20
2008,06,30,01,49,20.20
2008,06,30,01,50,20.20
2008,06,30,01,51,20.20
2008,06,30,01,52,20.20
2008,06,30,01,53,20.20
2008,06,30,01,54,20.20
2008,06,30,01,55,20.20
2008,06,30,01,56,20.10
2008,06,30,01,57,20.10
2008,06,30,01,58,20.10
2008,06,30,01,59,20.00
2008,06,30,02,00,19.90
2008,06,30,02,01,19.90
2008,06,30,02,02,19.90
2008,06,30,02,03,19.90
2008,06,30,02,04,19.80
2008,06,30,02,05,19.80
2008,06,30,02,06,19.80
2008,06,30,02,07,19.70
2008,06,30,02,08,19.70
2008,06,30,02,09,19.70
2008,06,30,02,10,19.60
2008,06,30,02,11,19.60
2008,06,30,02,12,19.60
2008,06,30,02,13,19.60
2008,06,30,02,14,19.60
2008,06,30,02,15,19.50
2008,06,30,02,16,19.50
2008,06,30,02,17,19.50
2008,06,30,02,18,19.50
2008,06,30,02,19,19.40
2008,06,30,02,20,19.40
2008,06,30,02,21,19.40
2008,06,30,02,22,19.40
2008,06,30,02,23,19.40
2008,06,30,02,24,19.30
2008,06,30,02,25,19.30
2008,06,30,02,26,19.30
2008,06,30,02,27,19.30
2008,06,30,02,28,19.30
2008,06,30,02,29,19.30
2008,06,30,02,30,19.20
2008,06,30,02,31,19.20
2008,06,30,02,32,19.20
2008,06,30,02,33,19.20
2008,06,30,02,34,19.20
2008,06,30,02,35,19.20
2008,06,30,02,36,19.10
2008,06,30,02,37,19.10
2008,06,30,02,38,19.10
2008,06,30,02,39,19.10
2008,06,30,02,40,19.10
2008,06,30,02,41,19.10
2008,06,30,02,42,19.10
2008,06,30,02,43,19.10
2008,06,30,02,44,19.10
2008,06,30,02,45,19.10
2008,06,30,02,46,19.10
2008,06,30,02,47,19.10
2008,06,30,02,48,19.10
2008,06,30,02,49,19.10
2008,06,30,02,50,19.10
2008,06,30,02,51,19.10
2008,06,30,02,52,19.10
2008,06,30,02,53,19.10
2008,06,30,02,54,19.10
2008,06,30,02,55,19.10
2008,06,30,02,56,19.10
2008,06,30,02,57,19.10
2008,06,30,02,58,19.00
2008,06,30,02,59,18.90
2008,06,30,03,00,18.90
2008,06,30,03,01,18.90
2008,06,30,03,02,18.90
2008,06,30,03,03,18.90
2008,06,30,03,04,18.90
2008,06,30,03,05,18.90
2008,06,30,03,06,18.90
2008,06,30,03,07,18.90
2008,06,30,03,08,18.90
2008,06,30,03,09,18.90
2008,06,30,03,10,18.90
2008,06,30,03,11,18.90
2008,06,30,03,12,18.90
2008,06,30,03,13,18.90
2008,06,30,03,14,18.80
2008,06,30,03,15,18.80
2008,06,30,03,16,18.80
2008,06,30,03,17,18.80
2008,06,30,03,18,18.80
2008,06,30,03,19,18.70
2008,06,30,03,20,18.70
2008,06,30,03,21,18.70
2008,06,30,03,22,18.70
2008,06,30,03,23,18.70
2008,06,30,03,24,18.60
2008,06,30,03,25,18.60
2008,06,30,03,26,18.60
2008,06,30,03,27,18.60
2008,06,30,03,28,18.60
2008,06,30,03,29,18.50
2008,06,30,03,30,18.50
2008,06,30,03,31,18.50
2008,06,30,03,32,18.50
2008,06,30,03,33,18.50
2008,06,30,03,34,18.40
2008,06,30,03,35,18.40
2008,06,30,03,36,18.40
2008,06,30,03,37,18.40
2008,06,30,03,38,18.40
2008,06,30,03,39,18.30
2008,06,30,03,40,18.30
2008,06,30,03,41,18.30
2008,06,30,03,42,18.30
2008,06,30,03,43,18.30
2008,06,30,03,44,18.30
2008,06,30,03,45,18.30
2008,06,30,03,46,18.30
2008,06,30,03,47,18.30
2008,06,30,03,48,18.30
2008,06,30,03,49,18.30
2008,06,30,03,50,18.30
2008,06,30,03,51,18.30
2008,06,30,03,52,18.30
2008,06,30,03,53,18.30
2008,06,30,03,54,18.30
2008,06,30,03,55,18.30
2008,06,30,03,56,18.30
2008,06,30,03,57,18.20
2008,06,30,03,58,18.20
2008,06,30,03,59,18.20
2008,06,30,04,00,18.20
2008,06,30,04,01,18.20
2008,06,30,04,02,18.30
2008,06,30,04,03,18.30
2008,06,30,04,04,18.30
2008,06,30,04,05,18.30
2008,06,30,04,06,18.30
2008,06,30,04,07,18.30
2008,06,30,04,08,18.30
2008,06,30,04,09,18.30
2008,06,30,04,10,18.30
2008,06,30,04,11,18.30
2008,06,30,04,12,18.30
2008,06,30,04,13,18.30
2008,06,30,04,14,18.30
2008,06,30,04,15,18.30
2008,06,30,04,16,18.30
2008,06,30,04,17,18.30
2008,06,30,04,18,18.30
2008,06,30,04,19,18.30
2008,06,30,04,20,18.30
2008,06,30,04,21,18.30
2008,06,30,04,22,18.30
2008,06,30,04,23,18.30
2008,06,30,04,24,18.30
2008,06,30,04,25,18.30
2008,06,30,04,26,18.30
2008,06,30,04,27,18.30
2008,06,30,04,28,18.30
2008,06,30,04,29,18.30
2008,06,30,04,30,18.30
2008,06,30,04,31,18.30
2008,06,30,04,32,18.20
2008,06,30,04,33,18.20
2008,06,30,04,34,18.20
2008,06,30,04,35,18.20
2008,06,30,04,36,18.20
2008,06,30,04,37,18.20
2008,06,30,04,38,18.20
2008,06,30,04,39,18.20
2008,06,30,04,40,18.30
2008,06,30,04,41,18.30
2008,06,30,04,42,18.30
2008,06,30,04,43,18.30
2008,06,30,04,44,18.30
2008,06,30,04,45,18.30
2008,06,30,04,46,18.30
2008,06,30,04,47,18.40
2008,06,30,04,48,18.40
2008,06,30,04,49,18.40
2008,06,30,04,50,18.40
2008,06,30,04,51,18.40
2008,06,30,04,52,18.50
2008,06,30,04,53,18.50
2008,06,30,04,54,18.50
2008,06,30,04,55,18.50
2008,06,30,04,56,18.50
2008,06,30,04,57,18.50
2008,06,30,04,58,18.50
2008,06,30,04,59,18.50
2008,06,30,05,00,18.60
2008,06,30,05,01,18.60
2008,06,30,05,02,18.60
2008,06,30,05,03,18.60
2008,06,30,05,04,18.60
2008,06,30,05,05,18.60
2008,06,30,05,06,18.60
2008,06,30,05,07,18.60
2008,06,30,05,08,18.60
2008,06,30,05,09,18.60
2008,06,30,05,10,18.60
2008,06,30,05,11,18.60
2008,06,30,05,12,18.60
2008,06,30,05,13,18.60
2008,06,30,05,14,18.60
2008,06,30,05,15,18.60
2008,06,30,05,16,18.60
2008,06,30,05,17,18.60
2008,06,30,05,18,18.60
2008,06,30,05,19,18.60
2008,06,30,05,20,18.60
2008,06,30,05,21,18.60
2008,06,30,05,22,18.60
2008,06,30,05,23,18.60
2008,06,30,05,24,18.60
2008,06,30,05,25,18.60
2008,06,30,05,26,18.60
2008,06,30,05,27,18.60
2008,06,30,05,28,18.60
2008,06,30,05,29,18.50
2008,06,30,05,30,18.50
2008,06,30,05,31,18.50
2008,06,30,05,32,18.50
2008,06,30,05,33,18.50
2008,06,30,05,34,18.50
2008,06,30,05,35,18.50
2008,06,30,05,36,18.50
2008,06,30,05,37,18.50
2008,06,30,05,38,18.50
2008,06,30,05,39,18.50
2008,06,30,05,40,18.50
2008,06,30,05,41,18.50
2008,06,30,05,42,18.50
2008,06,30,05,43,18.50
2008,06,30,05,44,18.50
2008,06,30,05,45,18.50
2008,06,30,05,46,18.40
2008,06,30,05,47,18.40
2008,06,30,05,48,18.40
2008,06,30,05,49,18.40
2008,06,30,05,50,18.40
2008,06,30,05,51,18.40
2008,06,30,05,52,18.40
2008,06,30,05,53,18.40
2008,06,30,05,54,18.50
2008,06,30,05,55,18.50
2008,06,30,05,56,18.50
2008,06,30,05,57,18.50
2008,06,30,05,58,18.50
2008,06,30,05,59,18.50
2008,06,30,06,00,18.50
2008,06,30,06,01,18.50
2008,06,30,06,02,18.50
2008,06,30,06,03,18.50
2008,06,30,06,04,18.50
2008,06,30,06,05,18.60
2008,06,30,06,06,18.60
2008,06,30,06,07,18.60
2008,06,30,06,08,18.60
2008,06,30,06,09,18.60
2008,06,30,06,10,18.60
2008,06,30,06,11,18.60
2008,06,30,06,12,18.60
2008,06,30,06,13,18.60
2008,06,30,06,14,18.60
2008,06,30,06,15,18.60
2008,06,30,06,16,18.60
2008,06,30,06,17,18.60
2008,06,30,06,18,18.60
2008,06,30,06,19,18.60
2008,06,30,06,20,18.70
2008,06,30,06,21,18.70
2008,06,30,06,22,18.70
2008,06,30,06,23,18.80
2008,06,30,06,24,18.80
2008,06,30,06,25,18.90
2008,06,30,06,26,18.90
2008,06,30,06,27,18.90
2008,06,30,06,28,18.90
2008,06,30,06,29,18.90
2008,06,30,06,30,18.90
2008,06,30,06,31,19.00
2008,06,30,06,32,19.10
2008,06,30,06,33,19.10
2008,06,30,06,34,19.10
2008,06,30,06,35,19.10
2008,06,30,06,36,19.10
2008,06,30,06,37,19.10
2008,06,30,06,38,19.10
2008,06,30,06,39,19.20
2008,06,30,06,40,19.20
2008,06,30,06,41,19.20
2008,06,30,06,42,19.20
2008,06,30,06,43,19.30
2008,06,30,06,44,19.30
2008,06,30,06,45,19.30
2008,06,30,06,46,19.30
2008,06,30,06,47,19.30
2008,06,30,06,48,19.40
2008,06,30,06,49,19.40
2008,06,30,06,50,19.40
2008,06,30,06,51,19.40
2008,06,30,06,52,19.40
2008,06,30,06,53,19.40
2008,06,30,06,54,19.50
2008,06,30,06,55,19.50
2008,06,30,06,56,19.50
2008,06,30,06,57,19.50
2008,06,30,06,58,19.50
2008,06,30,06,59,19.50
2008,06,30,07,00,19.50
2008,06,30,07,01,19.60
2008,06,30,07,02,19.60
2008,06,30,07,03,19.60
2008,06,30,07,04,19.60
2008,06,30,07,05,19.60
2008,06,30,07,06,19.60
2008,06,30,07,07,19.70
2008,06,30,07,08,19.70
2008,06,30,07,09,19.70
2008,06,30,07,10,19.70
2008,06,30,07,11,19.70
2008,06,30,07,12,19.80
2008,06,30,07,13,19.80
2008,06,30,07,14,19.80
2008,06,30,07,15,19.80
2008,06,30,07,16,19.90
2008,06,30,07,17,19.90
2008,06,30,07,18,19.90
2008,06,30,07,19,19.90
2008,06,30,07,20,19.90
2008,06,30,07,21,19.90
2008,06,30,07,22,19.90
2008,06,30,07,23,19.90
2008,06,30,07,24,19.90
2008,06,30,07,25,20.00
2008,06,30,07,26,20.10
2008,06,30,07,27,20.10
2008,06,30,07,28,20.10
2008,06,30,07,29,20.10
2008,06,30,07,30,20.10
2008,06,30,07,31,20.10
2008,06,30,07,32,20.10
2008,06,30,07,33,20.10
2008,06,30,07,34,20.10
2008,06,30,07,35,20.10
2008,06,30,07,36,20.10
2008,06,30,07,37,20.10
2008,06,30,07,38,20.10
2008,06,30,07,39,20.10
2008,06,30,07,40,20.20
2008,06,30,07,41,20.20
2008,06,30,07,42,20.20
2008,06,30,07,43,20.20
2008,06,30,07,44,20.20
2008,06,30,07,45,20.20
2008,06,30,07,46,20.20
2008,06,30,07,47,20.30
2008,06,30,07,48,20.30
2008,06,30,07,49,20.30
2008,06,30,07,50,20.40
2008,06,30,07,51,20.40
2008,06,30,07,52,20.40
2008,06,30,07,53,20.50
2008,06,30,07,54,20.50
2008,06,30,07,55,20.50
2008,06,30,07,56,20.60
2008,06,30,07,57,20.60
2008,06,30,07,58,20.60
2008,06,30,07,59,20.70
2008,06,30,08,00,20.70
2008,06,30,08,01,20.80
2008,06,30,08,02,20.80
2008,06,30,08,03,20.90
2008,06,30,08,04,20.90
2008,06,30,08,05,21.00
2008,06,30,08,06,21.00
2008,06,30,08,07,21.00
2008,06,30,08,08,21.10
2008,06,30,08,09,21.10
2008,06,30,08,10,21.10
2008,06,30,08,11,21.20
2008,06,30,08,12,21.20
2008,06,30,08,13,21.30
2008,06,30,08,14,21.30
2008,06,30,08,15,21.30
2008,06,30,08,16,21.40
2008,06,30,08,17,21.40
2008,06,30,08,18,21.50
2008,06,30,08,19,21.60
2008,06,30,08,20,21.60
2008,06,30,08,21,21.60
2008,06,30,08,22,21.60
2008,06,30,08,23,21.70
2008,06,30,08,24,21.70
2008,06,30,08,25,21.80
2008,06,30,08,26,21.80
2008,06,30,08,27,21.90
2008,06,30,08,28,21.90
2008,06,30,08,29,22.00
2008,06,30,08,30,22.00
2008,06,30,08,31,22.10
2008,06,30,08,32,22.10
2008,06,30,08,33,22.20
2008,06,30,08,34,22.20
2008,06,30,08,35,22.30
2008,06,30,08,36,22.30
2008,06,30,08,37,22.40
2008,06,30,08,38,22.40
2008,06,30,08,39,22.50
2008,06,30,08,40,22.50
2008,06,30,08,41,22.50
2008,06,30,08,42,22.60
2008,06,30,08,43,22.60
2008,06,30,08,44,22.60
2008,06,30,08,45,22.70
2008,06,30,08,46,22.70
2008,06,30,08,47,22.80
2008,06,30,08,48,22.80
2008,06,30,08,49,22.90
2008,06,30,08,50,22.90
2008,06,30,08,51,22.90
2008,06,30,08,52,22.90
2008,06,30,08,53,22.90
2008,06,30,08,54,22.90
2008,06,30,08,55,22.90
2008,06,30,08,56,22.90
2008,06,30,08,57,22.90
2008,06,30,08,58,22.90
2008,06,30,08,59,22.90
2008,06,30,09,00,22.80
2008,06,30,09,01,22.80
2008,06,30,09,02,22.80
2008,06,30,09,03,22.70
2008,06,30,09,04,22.70
2008,06,30,09,05,22.70
2008,06,30,09,06,22.60
2008,06,30,09,07,22.60
2008,06,30,09,08,22.60
2008,06,30,09,09,22.50
2008,06,30,09,10,22.40
2008,06,30,09,11,22.30
2008,06,30,09,12,22.20
2008,06,30,09,13,22.20
2008,06,30,09,14,22.10
2008,06,30,09,15,22.10
2008,06,30,09,16,22.10
2008,06,30,09,17,22.00
2008,06,30,09,18,22.00
2008,06,30,09,19,22.00
2008,06,30,09,20,22.00
2008,06,30,09,21,22.00
2008,06,30,09,22,22.00
2008,06,30,09,23,22.00
2008,06,30,09,24,22.00
2008,06,30,09,25,22.00
2008,06,30,09,26,22.10
2008,06,30,09,27,22.10
2008,06,30,09,28,22.20
2008,06,30,09,29,22.20
2008,06,30,09,30,22.30
2008,06,30,09,31,22.30
2008,06,30,09,32,22.40
2008,06,30,09,33,22.40
2008,06,30,09,34,22.50
2008,06,30,09,35,22.50
2008,06,30,09,36,22.60
2008,06,30,09,37,22.60
2008,06,30,09,38,22.70
2008,06,30,09,39,22.70
2008,06,30,09,40,22.70
2008,06,30,09,41,22.70
2008,06,30,09,42,22.70
2008,06,30,09,43,22.70
2008,06,30,09,44,22.60
2008,06,30,09,45,22.60
2008,06,30,09,46,22.50
2008,06,30,09,47,22.50
2008,06,30,09,48,22.50
2008,06,30,09,49,22.60
2008,06,30,09,50,22.70
2008,06,30,09,51,22.70
2008,06,30,09,52,22.80
2008,06,30,09,53,22.80
2008,06,30,09,54,22.90
2008,06,30,09,55,22.90
2008,06,30,09,56,22.90
2008,06,30,09,57,22.90
2008,06,30,09,58,22.90
2008,06,30,09,59,23.10
2008,06,30,10,00,23.10
2008,06,30,10,01,23.20
2008,06,30,10,02,23.30
2008,06,30,10,03,23.30
2008,06,30,10,04,23.30
2008,06,30,10,05,23.30
2008,06,30,10,06,23.30
2008,06,30,10,07,23.30
2008,06,30,10,08,23.20
2008,06,30,10,09,23.20
2008,06,30,10,10,23.20
2008,06,30,10,11,23.20
2008,06,30,10,12,23.20
2008,06,30,10,13,23.20
2008,06,30,10,14,23.30
2008,06,30,10,15,23.30
2008,06,30,10,16,23.30
2008,06,30,10,17,23.40
2008,06,30,10,18,23.40
2008,06,30,10,19,23.50
2008,06,30,10,20,23.60
2008,06,30,10,21,23.60
2008,06,30,10,22,23.70
2008,06,30,10,23,23.70
2008,06,30,10,24,23.70
2008,06,30,10,25,23.70
2008,06,30,10,26,23.70
2008,06,30,10,27,23.70
2008,06,30,10,28,23.70
2008,06,30,10,29,23.70
2008,06,30,10,30,23.80
2008,06,30,10,31,23.90
2008,06,30,10,32,24.00
2008,06,30,10,33,24.10
2008,06,30,10,34,24.10
2008,06,30,10,35,24.20
2008,06,30,10,36,24.30
2008,06,30,10,37,24.40
2008,06,30,10,38,24.40
2008,06,30,10,39,24.40
2008,06,30,10,40,24.40
2008,06,30,10,41,24.40
2008,06,30,10,42,24.50
2008,06,30,10,43,24.50
2008,06,30,10,44,24.60
2008,06,30,10,45,24.70
2008,06,30,10,46,24.70
2008,06,30,10,47,24.80
2008,06,30,10,48,24.90
2008,06,30,10,49,25.00
2008,06,30,10,50,25.10
2008,06,30,10,51,25.10
2008,06,30,10,52,25.10
2008,06,30,10,53,25.00
2008,06,30,10,54,24.90
2008,06,30,10,55,24.90
2008,06,30,10,56,24.90
2008,06,30,10,57,24.80
2008,06,30,10,58,24.80
2008,06,30,10,59,24.70
2008,06,30,11,00,24.70
2008,06,30,11,01,24.70
2008,06,30,11,02,24.70
2008,06,30,11,03,24.70
2008,06,30,11,04,24.70
2008,06,30,11,05,24.60
2008,06,30,11,06,24.60
2008,06,30,11,07,24.60
2008,06,30,11,08,24.60
2008,06,30,11,09,24.60
2008,06,30,11,10,24.50
2008,06,30,11,11,24.50
2008,06,30,11,12,24.50
2008,06,30,11,13,24.50
2008,06,30,11,14,24.60
2008,06,30,11,15,24.60
2008,06,30,11,16,24.70
2008,06,30,11,17,24.70
2008,06,30,11,18,24.80
2008,06,30,11,19,24.80
2008,06,30,11,20,24.90
2008,06,30,11,21,24.90
2008,06,30,11,22,24.90
2008,06,30,11,23,24.80
2008,06,30,11,24,24.70
2008,06,30,11,25,24.70
2008,06,30,11,26,24.70
2008,06,30,11,27,24.70
2008,06,30,11,28,24.70
2008,06,30,11,29,24.70
2008,06,30,11,30,24.60
2008,06,30,11,31,24.50
2008,06,30,11,32,24.40
2008,06,30,11,33,24.20
2008,06,30,11,34,24.10
2008,06,30,11,35,24.00
2008,06,30,11,36,23.90
2008,06,30,11,37,23.90
2008,06,30,11,38,24.00
2008,06,30,11,39,24.10
2008,06,30,11,40,24.10
2008,06,30,11,41,24.10
2008,06,30,11,42,24.10
2008,06,30,11,43,24.20
2008,06,30,11,44,24.30
2008,06,30,11,45,24.30
2008,06,30,11,46,24.40
2008,06,30,11,47,24.40
2008,06,30,11,48,24.40
2008,06,30,11,49,24.40
2008,06,30,11,50,24.50
2008,06,30,11,51,24.50
2008,06,30,11,52,24.60
2008,06,30,11,53,24.60
2008,06,30,11,54,24.70
2008,06,30,11,55,24.80
2008,06,30,11,56,24.80
2008,06,30,11,57,24.70
2008,06,30,11,58,24.80
2008,06,30,11,59,24.80
2008,06,30,12,00,24.80
2008,06,30,12,01,24.90
2008,06,30,12,02,24.90
2008,06,30,12,03,24.90
2008,06,30,12,04,25.00
2008,06,30,12,05,25.00
2008,06,30,12,06,25.00
2008,06,30,12,07,25.00
2008,06,30,12,08,24.90
2008,06,30,12,09,24.90
2008,06,30,12,10,24.90
2008,06,30,12,11,25.00
2008,06,30,12,12,25.00
2008,06,30,12,13,25.00
2008,06,30,12,14,25.00
2008,06,30,12,15,24.90
2008,06,30,12,16,24.90
2008,06,30,12,17,24.90
2008,06,30,12,18,25.00
2008,06,30,12,19,25.00
2008,06,30,12,20,25.00
2008,06,30,12,21,24.90
2008,06,30,12,22,24.90
2008,06,30,12,23,24.90
2008,06,30,12,24,25.00
2008,06,30,12,25,25.00
2008,06,30,12,26,25.10
2008,06,30,12,27,25.20
2008,06,30,12,28,25.30
2008,06,30,12,29,25.40
2008,06,30,12,30,25.50
2008,06,30,12,31,25.60
2008,06,30,12,32,25.70
2008,06,30,12,33,25.70
2008,06,30,12,34,25.70
2008,06,30,12,35,25.80
2008,06,30,12,36,25.90
2008,06,30,12,37,26.00
2008,06,30,12,38,26.10
2008,06,30,12,39,26.20
2008,06,30,12,40,26.20
2008,06,30,12,41,26.20
2008,06,30,12,42,26.20
2008,06,30,12,43,26.20
2008,06,30,12,44,26.20
2008,06,30,12,45,26.20
2008,06,30,12,46,26.30
2008,06,30,12,47,26.30
2008,06,30,12,48,26.40
2008,06,30,12,49,26.40
2008,06,30,12,50,26.60
2008,06,30,12,51,26.60
2008,06,30,12,52,26.60
2008,06,30,12,53,26.70
2008,06,30,12,54,26.80
2008,06,30,12,55,26.80
2008,06,30,12,56,26.80
2008,06,30,12,57,26.80
2008,06,30,12,58,26.90
2008,06,30,12,59,26.90
2008,06,30,13,00,27.10
2008,06,30,13,01,27.10
2008,06,30,13,02,27.10
2008,06,30,13,03,27.10
2008,06,30,13,04,27.10
2008,06,30,13,05,27.20
2008,06,30,13,06,27.30
2008,06,30,13,07,27.30
2008,06,30,13,08,27.20
2008,06,30,13,09,27.10
2008,06,30,13,10,27.10
2008,06,30,13,11,27.10
2008,06,30,13,12,27.10
2008,06,30,13,13,27.10
2008,06,30,13,14,27.10
2008,06,30,13,15,27.10
2008,06,30,13,16,27.00
2008,06,30,13,17,26.90
2008,06,30,13,18,26.80
2008,06,30,13,19,26.70
2008,06,30,13,20,26.80
2008,06,30,13,21,26.80
2008,06,30,13,22,26.80
2008,06,30,13,23,26.80
2008,06,30,13,24,26.80
2008,06,30,13,25,26.60
2008,06,30,13,26,26.70
2008,06,30,13,27,26.70
2008,06,30,13,28,26.80
2008,06,30,13,29,26.80
2008,06,30,13,30,26.80
2008,06,30,13,31,26.60
2008,06,30,13,32,26.60
2008,06,30,13,33,26.60
2008,06,30,13,34,26.60
2008,06,30,13,35,26.70
2008,06,30,13,36,27.00
2008,06,30,13,37,27.10
2008,06,30,13,38,27.30
2008,06,30,13,39,27.40
2008,06,30,13,40,27.60
2008,06,30,13,41,27.70
2008,06,30,13,42,27.90
2008,06,30,13,43,28.00
2008,06,30,13,44,28.20
2008,06,30,13,45,28.30
2008,06,30,13,46,28.30
2008,06,30,13,47,28.30
2008,06,30,13,48,28.20
2008,06,30,13,49,28.10
2008,06,30,13,50,27.90
2008,06,30,13,51,27.80
2008,06,30,13,52,27.80
2008,06,30,13,53,27.90
2008,06,30,13,54,27.90
2008,06,30,13,55,27.90
2008,06,30,13,56,28.10
2008,06,30,13,57,28.20
2008,06,30,13,58,28.30
2008,06,30,13,59,28.40
2008,06,30,14,00,28.60
2008,06,30,14,01,28.60
2008,06,30,14,02,28.70
2008,06,30,14,03,28.80
2008,06,30,14,04,28.90
2008,06,30,14,05,28.90
2008,06,30,14,06,28.90
2008,06,30,14,07,28.90
2008,06,30,14,08,28.80
2008,06,30,14,09,28.80
2008,06,30,14,10,28.70
2008,06,30,14,11,28.70
2008,06,30,14,12,28.70
2008,06,30,14,13,28.70
2008,06,30,14,14,28.60
2008,06,30,14,15,28.60
2008,06,30,14,16,28.60
2008,06,30,14,17,28.40
2008,06,30,14,18,28.40
2008,06,30,14,19,28.30
2008,06,30,14,20,28.30
2008,06,30,14,21,28.20
2008,06,30,14,22,28.10
2008,06,30,14,23,28.10
2008,06,30,14,24,27.90
2008,06,30,14,25,27.80
2008,06,30,14,26,27.60
2008,06,30,14,27,27.40
2008,06,30,14,28,27.30
2008,06,30,14,29,27.30
2008,06,30,14,30,27.20
2008,06,30,14,31,27.10
2008,06,30,14,32,27.00
2008,06,30,14,33,26.90
2008,06,30,14,34,26.80
2008,06,30,14,35,26.80
2008,06,30,14,36,26.70
2008,06,30,14,37,26.80
2008,06,30,14,38,26.80
2008,06,30,14,39,26.80
2008,06,30,14,40,26.80
2008,06,30,14,41,26.80
2008,06,30,14,42,26.80
2008,06,30,14,43,26.80
2008,06,30,14,44,26.80
2008,06,30,14,45,26.90
2008,06,30,14,46,27.00
2008,06,30,14,47,27.10
2008,06,30,14,48,27.10
2008,06,30,14,49,27.20
2008,06,30,14,50,27.30
2008,06,30,14,51,27.30
2008,06,30,14,52,27.40
2008,06,30,14,53,27.40
2008,06,30,14,54,27.50
2008,06,30,14,55,27.60
2008,06,30,14,56,27.70
2008,06,30,14,57,27.80
2008,06,30,14,58,27.70
2008,06,30,14,59,27.60
2008,06,30,15,00,27.40
2008,06,30,15,01,27.30
2008,06,30,15,02,27.20
2008,06,30,15,03,27.20
2008,06,30,15,04,27.20
2008,06,30,15,05,27.30
2008,06,30,15,06,27.20
2008,06,30,15,07,27.00
2008,06,30,15,08,26.80
2008,06,30,15,09,26.70
2008,06,30,15,10,26.70
2008,06,30,15,11,26.60
2008,06,30,15,12,26.50
2008,06,30,15,13,26.40
2008,06,30,15,14,26.30
2008,06,30,15,15,26.30
2008,06,30,15,16,26.20
2008,06,30,15,17,26.20
2008,06,30,15,18,26.20
2008,06,30,15,19,26.20
2008,06,30,15,20,26.20
2008,06,30,15,21,26.20
2008,06,30,15,22,26.20
2008,06,30,15,23,26.30
2008,06,30,15,24,26.50
2008,06,30,15,25,26.60
2008,06,30,15,26,26.50
2008,06,30,15,27,26.40
2008,06,30,15,28,26.40
2008,06,30,15,29,26.50
2008,06,30,15,30,26.60
2008,06,30,15,31,26.60
2008,06,30,15,32,26.70
2008,06,30,15,33,26.80
2008,06,30,15,34,27.00
2008,06,30,15,35,27.10
2008,06,30,15,36,27.20
2008,06,30,15,37,27.30
2008,06,30,15,38,27.50
2008,06,30,15,39,27.70
2008,06,30,15,40,27.80
2008,06,30,15,41,28.00
2008,06,30,15,42,28.20
2008,06,30,15,43,28.40
2008,06,30,15,44,28.50
2008,06,30,15,45,28.70
2008,06,30,15,46,28.90
2008,06,30,15,47,29.00
2008,06,30,15,48,29.10
2008,06,30,15,49,29.30
2008,06,30,15,50,29.40
2008,06,30,15,51,29.50
2008,06,30,15,52,29.50
2008,06,30,15,53,29.60
2008,06,30,15,54,29.60
2008,06,30,15,55,29.60
2008,06,30,15,56,29.60
2008,06,30,15,57,29.70
2008,06,30,15,58,29.70
2008,06,30,15,59,29.70
2008,06,30,16,00,29.60
2008,06,30,16,01,29.60
2008,06,30,16,02,29.60
2008,06,30,16,03,29.60
2008,06,30,16,04,29.60
2008,06,30,16,05,29.50
2008,06,30,16,06,29.40
2008,06,30,16,07,29.30
2008,06,30,16,08,29.10
2008,06,30,16,09,28.90
2008,06,30,16,10,28.90
2008,06,30,16,11,28.90
2008,06,30,16,12,28.90
2008,06,30,16,13,28.90
2008,06,30,16,14,28.80
2008,06,30,16,15,28.70
2008,06,30,16,16,28.70
2008,06,30,16,17,28.60
2008,06,30,16,18,28.60
2008,06,30,16,19,28.70
2008,06,30,16,20,28.70
2008,06,30,16,21,28.80
2008,06,30,16,22,28.90
2008,06,30,16,23,28.90
2008,06,30,16,24,28.90
2008,06,30,16,25,29.00
2008,06,30,16,26,29.10
2008,06,30,16,27,29.20
2008,06,30,16,28,29.20
2008,06,30,16,29,29.10
2008,06,30,16,30,29.20
2008,06,30,16,31,29.20
2008,06,30,16,32,29.20
2008,06,30,16,33,29.20
2008,06,30,16,34,29.20
2008,06,30,16,35,29.10
2008,06,30,16,36,29.10
2008,06,30,16,37,28.90
2008,06,30,16,38,28.90
2008,06,30,16,39,28.90
2008,06,30,16,40,28.90
2008,06,30,16,41,28.90
2008,06,30,16,42,29.00
2008,06,30,16,43,29.10
2008,06,30,16,44,29.10
2008,06,30,16,45,29.20
2008,06,30,16,46,29.10
2008,06,30,16,47,29.10
2008,06,30,16,48,29.00
2008,06,30,16,49,28.90
2008,06,30,16,50,28.90
2008,06,30,16,51,28.90
2008,06,30,16,52,28.80
2008,06,30,16,53,28.60
2008,06,30,16,54,28.50
2008,06,30,16,55,28.30
2008,06,30,16,56,28.20
2008,06,30,16,57,28.10
2008,06,30,16,58,28.00
2008,06,30,16,59,27.90
2008,06,30,17,00,27.80
2008,06,30,17,01,27.80
2008,06,30,17,02,27.90
2008,06,30,17,03,28.00
2008,06,30,17,04,28.10
2008,06,30,17,05,28.10
2008,06,30,17,06,28.20
2008,06,30,17,07,28.30
2008,06,30,17,08,28.30
2008,06,30,17,09,28.30
2008,06,30,17,10,28.30
2008,06,30,17,11,28.30
2008,06,30,17,12,28.20
2008,06,30,17,13,28.10
2008,06,30,17,14,27.90
2008,06,30,17,15,27.70
2008,06,30,17,16,27.60
2008,06,30,17,17,27.60
2008,06,30,17,18,27.60
2008,06,30,17,19,27.60
2008,06,30,17,20,27.60
2008,06,30,17,21,27.70
2008,06,30,17,22,27.70
2008,06,30,17,23,27.80
2008,06,30,17,24,27.90
2008,06,30,17,25,28.00
2008,06,30,17,26,28.10
2008,06,30,17,27,28.20
2008,06,30,17,28,28.20
2008,06,30,17,29,28.30
2008,06,30,17,30,28.30
2008,06,30,17,31,28.40
2008,06,30,17,32,28.40
2008,06,30,17,33,28.40
2008,06,30,17,34,28.40
2008,06,30,17,35,28.40
2008,06,30,17,36,28.30
2008,06,30,17,37,28.30
2008,06,30,17,38,28.30
2008,06,30,17,39,28.30
2008,06,30,17,40,28.30
2008,06,30,17,41,28.40
2008,06,30,17,42,28.40
2008,06,30,17,43,28.40
2008,06,30,17,44,28.40
2008,06,30,17,45,28.40
2008,06,30,17,46,28.40
2008,06,30,17,47,28.40
2008,06,30,17,48,28.40
2008,06,30,17,49,28.40
2008,06,30,17,50,28.40
2008,06,30,17,51,28.40
2008,06,30,17,52,28.30
2008,06,30,17,53,28.20
2008,06,30,17,54,28.20
2008,06,30,17,55,28.30
2008,06,30,17,56,28.30
2008,06,30,17,57,28.40
2008,06,30,17,58,28.50
2008,06,30,17,59,28.60
2008,06,30,18,00,28.70
2008,06,30,18,01,28.80
2008,06,30,18,02,28.90
2008,06,30,18,03,28.90
2008,06,30,18,04,28.90
2008,06,30,18,05,28.90
2008,06,30,18,06,29.10
2008,06,30,18,07,29.10
2008,06,30,18,08,29.10